Вернуться в каталог

YAOGAN-33

АктивенВоенныеSSO
NORAD 47302·PAYLOAD·🇨🇳 China

Запущен Dec 27, 2020 с Jiuquan Satellite Launch Center

Loading…

Ближайшие Пролёты (ближайшие 24 часа)

TLE

СвежийSource: Space-Track

Эпоха: Sep 14, 2026, 14:31 UTC

1 47302U 20103A   26257.60554225  .00000264  00000-0  66168-4 0  9996
2 47302  98.0264 136.2641 0002721 184.9077 175.2097 14.58621360304349

Отслеживайте YAOGAN-33 в реальном времени с AllMySat

Download on the App Store